Terug naar catalogus

STARLINK-36841

ActiefCommunicatieVLEO
NORAD 67960·PAYLOAD·🇺🇸 United States

Gelanceerd Feb 24, 2026 vanaf Vandenberg Space Force Base

Loading…

Volgende Passages (komende 24 uur)

TLE

VersSource: CelesTrak SupGP

Epoch: Sep 15, 2026, 04:23 UTC

1 67960C 26037AE  26258.18312500  .00002917  00000+0  10570-3 0  2581
2 67960  43.0001 200.3774 0001358 280.6619  70.8878 15.27567887    15

Volg STARLINK-36841 in realtime met AllMySat

Download on the App Store